Location: Baumgarten
(49.0970°N, 12.7493°E)
Time: 19:12:58
(UTC+00:00)

SPOT 1/Viking Rocket - Pass Details

Date: 05 July 2020
Orbit: 778 x 793 km, 98.5° (Epoch: 12 August)

Event Time Altitude Azimuth Distance (km) Brightness Sun altitude
Exits shadow 19:51:15 - 148° (SSE) 2,727 5.7 -5.3°
Reaches altitude 10° 19:52:16 10° 146° (SSE) 2,329 5.4 -5.4°
Maximum altitude 19:57:17 56° 69° (ENE) 929 3.8 -6.0°
Drops below altitude 10° 20:02:20 10° 353° (N) 2,354 6.9 -6.5°
Sets 20:04:42 0° 349° (N) 3,289 7.9 -6.8°
